When you browse on this site, cookies collect data to enhance your experience and personalize the content and advertising you see.
Visit our Privacy Policy to learn more. By continuing to use the site, you agree to this use of cookies and data.
  • In United Kingdom
  • List of Countries
  • For 7 days
  • Water Temperature
  • Weather Map
  • Weather Widgets
  • user-avatar
    Login

    Hourly Weather Bristol

    Today, 26 February, Wednesday

    Time Temperature Precipitation Wind Pressure Humidity
    00:00 -1°C° 0 mm 7 mps 748 mmHg 78%
    01:00 -1°C° 0 mm 6 mps 748 mmHg 81%
    02:00 -1°C° 0 mm 6 mps 748 mmHg 83%
    03:00 -2°C° 0 mm 6 mps 748 mmHg 86%
    04:00 -1°C° 0 mm 6 mps 749 mmHg 84%
    05:00 -1°C° 0 mm 7 mps 750 mmHg 81%
    06:00 0°C° 0 mm 7 mps 750 mmHg 79%
    07:00 0°C° 0 mm 8 mps 751 mmHg 78%
    08:00 +1°C° 0 mm 9 mps 752 mmHg 77%
    09:00 +1°C° 0 mm 9 mps 753 mmHg 76%
    10:00 +2°C° 0.1 mm 9 mps 753 mmHg 72%
    11:00 +3°C° 0.1 mm 9 mps 754 mmHg 67%
    12:00 +3°C° 0.1 mm 9 mps 754 mmHg 62%
    13:00 +4°C° 0 mm 8 mps 755 mmHg 61%
    14:00 +4°C° 0 mm 8 mps 755 mmHg 60%
    15:00 +4°C° 0 mm 7 mps 755 mmHg 59%
    16:00 +3°C° 0 mm 6 mps 755 mmHg 64%
    17:00 +2°C° 0 mm 5 mps 755 mmHg 68%
    18:00 +1°C° 0 mm 4 mps 755 mmHg 73%
    19:00 +1°C° 0 mm 4 mps 755 mmHg 76%
    20:00 +1°C° 0 mm 4 mps 755 mmHg 78%
    21:00 +1°C° 0 mm 3 mps 754 mmHg 81%
    22:00 +1°C° 0 mm 4 mps 753 mmHg 81%
    23:00 +1°C° 0 mm 4 mps 753 mmHg 81%

    Tomorrow, 27 February, Thursday

    Time Temperature Precipitation Wind Pressure Humidity
    00:00 +3°C° 0 mm 4 mps 752 mmHg 81%
    01:00 +2°C° 0.6 mm 5 mps 750 mmHg 87%
    02:00 +2°C° 0.6 mm 5 mps 747 mmHg 92%
    03:00 +2°C° 0.6 mm 6 mps 745 mmHg 97%
    04:00 +2°C° 2.2 mm 6 mps 743 mmHg 96%
    05:00 +3°C° 2.2 mm 6 mps 742 mmHg 96%
    06:00 +3°C° 2.2 mm 7 mps 740 mmHg 95%
    07:00 +2°C° 0.5 mm 8 mps 740 mmHg 95%
    08:00 +2°C° 0.5 mm 9 mps 740 mmHg 94%
    09:00 +1°C° 0.5 mm 10 mps 740 mmHg 93%
    10:00 +1°C° 0 mm 10 mps 743 mmHg 89%
    11:00 +1°C° 0 mm 10 mps 745 mmHg 85%
    12:00 +1°C° 0 mm 10 mps 747 mmHg 81%
    13:00 +2°C° 0 mm 10 mps 749 mmHg 76%
    14:00 +2°C° 0 mm 10 mps 750 mmHg 72%
    15:00 +3°C° 0 mm 9 mps 751 mmHg 67%
    16:00 +2°C° 0 mm 8 mps 752 mmHg 70%
    17:00 +2°C° 0 mm 6 mps 753 mmHg 73%
    18:00 +1°C° 0 mm 5 mps 754 mmHg 76%
    19:00 +1°C° 0 mm 5 mps 755 mmHg 76%
    20:00 +1°C° 0 mm 4 mps 756 mmHg 77%
    21:00 0°C° 0 mm 4 mps 757 mmHg 77%
    22:00 +1°C° 0 mm 3 mps 757 mmHg 78%
    23:00 +1°C° 0 mm 3 mps 757 mmHg 79%

    Day after tomorrow, 28 February, Friday

    Time Temperature Precipitation Wind Pressure Humidity
    00:00 +3°C° 0 mm 2 mps 758 mmHg 80%
    01:00 +3°C° 0 mm 2 mps 757 mmHg 81%
    02:00 +3°C° 0 mm 2 mps 757 mmHg 82%
    03:00 +2°C° 0 mm 3 mps 757 mmHg 83%
    04:00 +2°C° 0 mm 3 mps 756 mmHg 83%
    05:00 +2°C° 0 mm 3 mps 756 mmHg 83%
    06:00 +3°C° 0 mm 4 mps 756 mmHg 83%
    07:00 +2°C° 0.2 mm 5 mps 755 mmHg 87%
    08:00 +2°C° 0.2 mm 5 mps 754 mmHg 90%
    09:00 +2°C° 0.2 mm 6 mps 753 mmHg 94%
    10:00 +2°C° 1 mm 6 mps 753 mmHg 95%
    11:00 +2°C° 1 mm 6 mps 752 mmHg 95%
    12:00 +2°C° 1 mm 6 mps 751 mmHg 96%
    13:00 +2°C° 1 mm 6 mps 750 mmHg 96%
    14:00 +3°C° 1 mm 5 mps 749 mmHg 96%
    15:00 +5°C° 1 mm 4 mps 748 mmHg 96%
    16:00 +6°C° 0.3 mm 4 mps 748 mmHg 97%
    17:00 +7°C° 0.3 mm 3 mps 747 mmHg 97%
    18:00 +8°C° 0.3 mm 3 mps 746 mmHg 98%
    19:00 +8°C° 0.8 mm 4 mps 746 mmHg 96%
    20:00 +8°C° 0.8 mm 6 mps 745 mmHg 95%
    21:00 +9°C° 0.8 mm 8 mps 744 mmHg 93%
    22:00 +9°C° 1.1 mm 8 mps 743 mmHg 93%
    23:00 +8°C° 1.1 mm 9 mps 743 mmHg 93%

    29 February, Saturday

    Time Temperature Precipitation Wind Pressure Humidity
    00:00 +8°C° 1.1 mm 10 mps 742 mmHg 93%
    01:00 +8°C° 0.6 mm 10 mps 740 mmHg 93%
    02:00 +8°C° 0.6 mm 10 mps 738 mmHg 92%
    03:00 +8°C° 0.6 mm 10 mps 737 mmHg 92%
    04:00 +8°C° 1.5 mm 10 mps 736 mmHg 92%
    05:00 +7°C° 1.5 mm 10 mps 735 mmHg 92%
    06:00 +7°C° 1.5 mm 10 mps 734 mmHg 92%
    07:00 +6°C° 1.1 mm 9 mps 734 mmHg 89%
    08:00 +4°C° 1.1 mm 8 mps 734 mmHg 87%
    09:00 +3°C° 1.1 mm 7 mps 735 mmHg 84%
    10:00 +2°C° 0.2 mm 8 mps 735 mmHg 79%
    11:00 +3°C° 0.2 mm 10 mps 736 mmHg 74%
    12:00 +3°C° 0.2 mm 11 mps 737 mmHg 69%
    13:00 +3°C° 0.2 mm 11 mps 736 mmHg 68%
    14:00 +3°C° 0.2 mm 11 mps 736 mmHg 67%
    15:00 +3°C° 0.2 mm 12 mps 736 mmHg 66%
    16:00 +2°C° 0.1 mm 11 mps 736 mmHg 69%
    17:00 +2°C° 0.1 mm 11 mps 736 mmHg 71%
    18:00 +1°C° 0.1 mm 11 mps 736 mmHg 74%
    19:00 +1°C° 0.1 mm 11 mps 736 mmHg 73%
    20:00 +1°C° 0.1 mm 11 mps 736 mmHg 73%
    21:00 +1°C° 0.1 mm 11 mps 737 mmHg 73%
    22:00 +1°C° 0.1 mm 11 mps 737 mmHg 74%
    23:00 +1°C° 0.1 mm 11 mps 737 mmHg 74%

    1 March, Sunday

    Time Temperature Precipitation Wind Pressure Humidity
    00:00 +1°C° 0.1 mm 11 mps 737 mmHg 75%
    01:00 +1°C° 0.1 mm 10 mps 737 mmHg 76%
    02:00 +1°C° 0.1 mm 10 mps 737 mmHg 76%
    03:00 +1°C° 0.1 mm 10 mps 737 mmHg 76%
    04:00 +1°C° 0.4 mm 10 mps 736 mmHg 78%
    05:00 +1°C° 0.4 mm 10 mps 736 mmHg 79%
    06:00 +1°C° 0.4 mm 9 mps 736 mmHg 80%
    07:00 +1°C° 0.1 mm 9 mps 736 mmHg 78%
    08:00 +2°C° 0.1 mm 9 mps 736 mmHg 76%
    09:00 +2°C° 0.1 mm 9 mps 736 mmHg 74%
    10:00 +3°C° 0.3 mm 10 mps 736 mmHg 73%
    11:00 +3°C° 0.3 mm 11 mps 736 mmHg 72%
    12:00 +4°C° 0.3 mm 12 mps 736 mmHg 71%
    13:00 +4°C° 0.4 mm 12 mps 735 mmHg 72%
    14:00 +3°C° 0.4 mm 12 mps 735 mmHg 72%
    15:00 +3°C° 0.4 mm 11 mps 735 mmHg 73%
    16:00 +3°C° 0.2 mm 10 mps 735 mmHg 74%
    17:00 +2°C° 0.2 mm 10 mps 734 mmHg 75%
    18:00 +1°C° 0.2 mm 9 mps 734 mmHg 77%
    19:00 +1°C° 0 mm 9 mps 734 mmHg 76%
    20:00 +1°C° 0 mm 9 mps 734 mmHg 76%
    21:00 +1°C° 0 mm 9 mps 734 mmHg 75%
    22:00 +1°C° 0.3 mm 10 mps 733 mmHg 81%
    23:00 +1°C° 0.3 mm 11 mps 733 mmHg 86%

    2 March, Monday

    Time Temperature Precipitation Wind Pressure Humidity
    00:00 +1°C° 0.3 mm 11 mps 733 mmHg 91%
    01:00 +1°C° 0.8 mm 11 mps 733 mmHg 91%
    02:00 +2°C° 0.8 mm 12 mps 733 mmHg 92%
    03:00 +2°C° 0.8 mm 12 mps 732 mmHg 92%
    04:00 +2°C° 0.8 mm 11 mps 733 mmHg 90%
    05:00 +2°C° 0.8 mm 10 mps 733 mmHg 88%
    06:00 +2°C° 0.8 mm 10 mps 733 mmHg 86%
    07:00 +3°C° 0.2 mm 9 mps 734 mmHg 84%
    08:00 +3°C° 0.2 mm 9 mps 734 mmHg 83%
    09:00 +4°C° 0.2 mm 8 mps 735 mmHg 82%
    10:00 +5°C° 0 mm 8 mps 736 mmHg 79%
    11:00 +5°C° 0 mm 9 mps 736 mmHg 75%
    12:00 +6°C° 0 mm 9 mps 737 mmHg 71%
    13:00 +6°C° 0 mm 9 mps 737 mmHg 71%
    14:00 +6°C° 0 mm 8 mps 738 mmHg 70%
    15:00 +6°C° 0 mm 8 mps 738 mmHg 69%
    16:00 +5°C° 0 mm 7 mps 739 mmHg 72%
    17:00 +4°C° 0 mm 6 mps 740 mmHg 75%
    18:00 +3°C° 0 mm 5 mps 740 mmHg 78%
    19:00 +2°C° 0 mm 6 mps 741 mmHg 76%
    20:00 +2°C° 0 mm 6 mps 742 mmHg 74%
    21:00 +1°C° 0 mm 6 mps 743 mmHg 72%
    22:00 +1°C° 0 mm 6 mps 744 mmHg 71%
    23:00 +1°C° 0 mm 6 mps 744 mmHg 70%
    Show more